Flag for Sweden Weather past 2 weeks in Gothenburg, Sweden

Now
36 °F

Light rain. Mostly cloudy.


Feels Like: 25 °F
Forecast: 36 / 38 °F
Wind: 20 mph from South

Location: Gothenburg / Save

Current Time: Mar 1, 2015 at 2:21:27 PM

Latest Report: Mar 1, 2015 at 1:50 PM


Visibility: 4 mi

Pressure: 29.21 "Hg

Humidity: 93%

Dew point: 34 °F

Location of GothenburgLocation

Historic Weather in Gothenburg — Graph

°F

Gothenburg temperature yesterday

Maximum temperature yesterday: 41 °F (at 2:20 PM)
Minimum temperature yesterday: 32 °F (at 2:20 AM)
Average temperature yesterday: 37 °F

Past Weeks' High & Low Weather Summary

 TemperatureHumidityPressure
High43 °F (Feb 18, 10:20 PM)100% (Feb 18, 5:00 PM)30.42 "Hg (Feb 18, 5:00 PM)
Low32 °F (Feb 14, 12:20 PM)61% (Feb 26, 9:29 PM)29.12 "Hg (Feb 23, 11:20 AM)
Average37 °F86%29.83 "Hg
* Reported Feb 14 12:20 PM — Mar 1 12:50 PM, Gothenburg, Weather by CustomWeather, © 2015

Note: Actual official high and low records may vary slightly from our data, if they occured in-between our weather recording intervals... More about our weather records

Advertising

Gothenburg weather history for previous 24 hours

 ConditionsComfort  
Time TempWeatherWind HumidityBarometerVisibility
12:50 PM
Sun, Mar 1
36 °FLight rain. Mostly cloudy.20 mph93%29.24 "Hg4 mi
12:20 PM36 °FRain. Cloudy.22 mph87%29.24 "Hg2 mi
11:50 AM34 °FLight snow. Cloudy.21 mph100%29.24 "Hg2 mi
11:20 AM34 °FLight rain. Cloudy.21 mph100%29.27 "Hg2 mi
10:50 AM34 °FLight snow. Broken clouds.18 mph93%29.27 "Hg1 mi
10:20 AM34 °FLight snow. Low clouds.20 mph93%29.27 "Hg2 mi
9:50 AM34 °FLight snow. Partly sunny.21 mph93%29.30 "Hg1 mi
9:20 AM34 °FLight rain. Cloudy.20 mph93%29.30 "Hg2 mi
8:20 AM34 °FLight rain. Low clouds.21 mph93%29.33 "Hg2 mi
7:50 AM36 °FLight rain. Mostly cloudy.22 mph87%29.36 "Hg2 mi
7:20 AM36 °FLight rain. Overcast.20 mph87%29.36 "Hg5 mi
6:50 AM37 °FDrizzle. Overcast.21 mph75%29.39 "HgN/A
6:20 AM37 °FDrizzle. Mostly cloudy.22 mph75%29.42 "HgN/A
5:50 AM37 °FPassing clouds.21 mph75%29.42 "HgN/A
5:20 AM37 °FClear.20 mph75%29.45 "Hg10 mi
4:50 AM37 °FClear.20 mph75%29.47 "Hg10 mi
4:20 AM37 °FClear.20 mph75%29.47 "Hg10 mi
3:50 AM39 °FClear.20 mph70%29.50 "Hg10 mi
3:20 AM37 °FPassing clouds.20 mph75%29.53 "HgN/A
2:50 AM37 °FClear.20 mph75%29.53 "Hg10 mi
2:20 AM37 °FClear.17 mph75%29.56 "Hg10 mi
1:50 AM39 °FClear.20 mph75%29.59 "Hg10 mi
1:20 AM37 °FClear.18 mph81%29.59 "Hg10 mi
12:50 AM39 °FClear.21 mph75%29.62 "Hg10 mi
12:20 AM39 °FOvercast.25 mph75%29.62 "HgN/A
11:50 PM
Sat, Feb 28
39 °FMostly cloudy.21 mph75%29.65 "HgN/A
11:20 PM39 °FClear.21 mph75%29.65 "Hg10 mi
10:50 PM39 °FClear.24 mph81%29.68 "Hg10 mi
10:20 PM39 °FClear.24 mph81%29.68 "Hg10 mi
9:50 PM39 °FMostly cloudy.23 mph81%29.71 "HgN/A
9:20 PM39 °FMostly cloudy.23 mph81%29.71 "HgN/A
8:50 PM39 °FMostly cloudy.23 mph81%29.74 "HgN/A
8:20 PM39 °FMostly cloudy.20 mph81%29.74 "HgN/A
7:50 PM39 °FOvercast.21 mph81%29.74 "HgN/A
7:20 PM39 °FDrizzle. Overcast.20 mph81%29.77 "HgN/A
6:50 PM37 °FMostly cloudy.17 mph87%29.77 "HgN/A
6:20 PM37 °FPassing clouds.18 mph87%29.77 "HgN/A
5:50 PM37 °FPassing clouds.18 mph81%29.77 "HgN/A
5:20 PM37 °FPassing clouds.18 mph81%29.80 "HgN/A
4:50 PM37 °FPassing clouds.18 mph81%29.80 "HgN/A
4:20 PM37 °FPassing clouds.21 mph81%29.83 "HgN/A
3:50 PM39 °FPassing clouds.21 mph75%29.83 "HgN/A
3:20 PM39 °FPassing clouds.22 mph75%29.83 "HgN/A
2:50 PM39 °FPassing clouds.22 mph70%29.83 "HgN/A
2:20 PM41 °FScattered clouds.18 mph76%29.86 "HgN/A
Weather by CustomWeather, © 2015

See weather overviewHow to use our weather pages